This is the latest recevied weather packets stored in our database for station/object KC8RFE-2. If no packets are shown the sender has not sent any weather packets the latest 10 day(s).
| Time | Temp. | Humidity | Pressure | Rain* | Wind** | Luminosity | Snow |
|---|---|---|---|---|---|---|---|
| 1777956526 | 13.33° C | 9% | - | 2.29 mm | - | - | - |
| 1777956197 | 13.33° C | 9% | - | 3.3 mm | - | - | - |
| 1777955926 | 13.33° C | 9% | - | 6.6 mm | - | - | - |
| 1777955597 | 13.33° C | 9% | - | 12.45 mm | - | - | - |
| 1777955326 | 13.33° C | 9% | - | 12.95 mm | - | - | - |
| 1777954997 | 13.33° C | 9% | - | 12.45 mm | - | - | - |
| 1777954727 | 13.33° C | 9% | - | 11.68 mm | - | - | - |
| 1777954398 | 13.33° C | 9% | - | 11.68 mm | - | - | - |
| 1777954127 | 13.33° C | 9% | - | 11.68 mm | - | - | - |
| 1777953798 | 13.33° C | 9% | - | 11.68 mm | - | - | - |
| 1777953527 | 13.33° C | 9% | - | 11.68 mm | - | - | - |
| 1777953201 | 13.33° C | 9% | - | 11.18 mm | - | - | - |
| 1777952927 | 13.33° C | 9% | - | 9.91 mm | - | - | - |
| 1777952600 | 13.33° C | 9% | - | 6.86 mm | - | - | - |
| 1777952327 | 13.89° C | 9% | - | 0.76 mm | - | - | - |
| 1777951998 | 15.56° C | 8% | - | 0 mm | - | - | - |
| 1777951727 | 17.22° C | 7% | - | 0 mm | - | - | - |
| 1777951398 | 18.33° C | 7% | - | 0 mm | - | - | - |
| 1777951127 | 20.56° C | 7% | - | 0 mm | - | - | - |
| 1777950798 | 20.56° C | 7% | - | 0 mm | - | - | - |
| 1777950527 | 20.56° C | 7% | - | 0 mm | - | - | - |
| 1777950198 | 20.56° C | 6% | - | 0 mm | - | - | - |
| 1777949926 | 20.56° C | 6% | - | 0 mm | - | - | - |
| 1777949597 | 20.56° C | 6% | - | 0 mm | - | - | - |
| 1777949326 | 20.56° C | 6% | - | 0 mm | - | - | - |
* Rain latest hour (hover to see other rain measurements)
** Current wind speed in m/s (hover to see current wind gust speed)